Time,TemperatureF,DewpointF,PressureIn,WindDirection,WindDirectionDegrees,WindSpeedMPH,WindSpeedGustMPH,Humidity,HourlyPrecipIn,Conditions,Clouds,dailyrainin,SoftwareType,DateUTC
2013-02-09 00:00:00,35.4,25.2,29.90,WNW,290,2.0,18.0,66,0.00,,---,0.24,VWS V14.01,2013-02-09 05:00:00,
2013-02-09 00:05:00,35.3,25.1,29.90,WNW,301,2.0,8.0,66,0.00,,---,0.00,VWS V14.01,2013-02-09 05:05:00,
2013-02-09 00:10:00,35.1,24.9,29.90,WNW,294,5.0,14.0,66,0.00,,---,0.00,VWS V14.01,2013-02-09 05:10:00,
2013-02-09 00:15:00,35.0,25.2,29.90,NW,314,4.0,14.0,67,0.00,,---,0.00,VWS V14.01,2013-02-09 05:15:00,
2013-02-09 00:20:00,34.9,25.1,29.90,NE,39,3.0,14.0,67,0.00,,---,0.00,VWS V14.01,2013-02-09 05:20:00,
2013-02-09 00:25:00,34.8,25.0,29.90,NW,305,2.0,14.0,67,0.00,,---,0.00,VWS V14.01,2013-02-09 05:25:00,
2013-02-09 00:30:00,34.7,25.2,29.91,WNW,285,3.0,14.0,68,0.00,,---,0.00,VWS V14.01,2013-02-09 05:30:00,
2013-02-09 00:35:00,34.6,25.1,29.91,WNW,293,4.0,9.0,68,0.00,,---,0.00,VWS V14.01,2013-02-09 05:35:00,
2013-02-09 00:40:00,34.6,25.1,29.91,WNW,285,2.0,11.0,68,0.00,,---,0.00,VWS V14.01,2013-02-09 05:40:00,
2013-02-09 00:45:00,34.5,25.0,29.91,West,274,4.0,14.0,68,0.00,,---,0.00,VWS V14.01,2013-02-09 05:45:00,
2013-02-09 00:50:00,34.4,25.0,29.91,NE,44,4.0,14.0,68,0.00,,---,0.00,VWS V14.01,2013-02-09 05:50:00,
2013-02-09 00:55:00,34.3,24.9,29.92,NW,311,4.0,14.0,68,0.00,,---,0.00,VWS V14.01,2013-02-09 05:55:00,
2013-02-09 01:00:00,34.3,24.5,29.92,NNW,335,6.0,14.0,67,0.00,,---,0.00,VWS V14.01,2013-02-09 06:00:00,
2013-02-09 01:05:00,34.2,24.4,29.92,WNW,285,3.0,7.0,67,0.00,,---,0.00,VWS V14.01,2013-02-09 06:05:00,
2013-02-09 01:10:00,34.1,24.0,29.92,NW,309,4.0,8.0,66,0.00,,---,0.00,VWS V14.01,2013-02-09 06:10:00,
2013-02-09 01:15:00,33.9,23.8,29.92,WNW,298,4.0,8.0,66,0.00,,---,0.00,VWS V14.01,2013-02-09 06:15:00,
2013-02-09 01:20:00,33.9,23.4,29.92,NW,316,2.0,14.0,65,0.00,,---,0.00,VWS V14.01,2013-02-09 06:20:00,
2013-02-09 01:25:00,33.7,22.5,29.92,NNW,336,3.0,14.0,63,0.00,,---,0.00,VWS V14.01,2013-02-09 06:25:00,
2013-02-09 01:30:00,33.7,22.5,29.92,WNW,298,4.0,16.0,63,0.00,,---,0.00,VWS V14.01,2013-02-09 06:30:00,
2013-02-09 01:35:00,33.6,22.4,29.93,West,274,5.0,10.0,63,0.00,,---,0.00,VWS V14.01,2013-02-09 06:35:00,
2013-02-09 01:40:00,33.4,22.2,29.93,WNW,291,7.0,12.0,63,0.00,,---,0.00,VWS V14.01,2013-02-09 06:40:00,
2013-02-09 01:45:00,33.3,22.1,29.93,NNW,331,4.0,12.0,63,0.00,,---,0.00,VWS V14.01,2013-02-09 06:45:00,
2013-02-09 01:50:00,33.2,22.4,29.94,North,359,0.0,12.0,64,0.00,,---,0.00,VWS V14.01,2013-02-09 06:50:00,
2013-02-09 01:55:00,33.1,21.9,29.94,NNW,328,6.0,13.0,63,0.00,,---,0.00,VWS V14.01,2013-02-09 06:55:00,
2013-02-09 02:00:00,33.0,21.8,29.94,ESE,104,6.0,13.0,63,0.00,,---,0.00,VWS V14.01,2013-02-09 07:00:00,
2013-02-09 02:05:00,33.0,21.8,29.95,West,280,5.0,14.0,63,0.00,,---,0.00,VWS V14.01,2013-02-09 07:05:00,
2013-02-09 02:10:00,32.9,21.7,29.95,ESE,117,6.0,14.0,63,0.00,,---,0.00,VWS V14.01,2013-02-09 07:10:00,
2013-02-09 02:15:00,32.8,22.0,29.95,NNW,333,4.0,14.0,64,0.00,,---,0.00,VWS V14.01,2013-02-09 07:15:00,
2013-02-09 02:20:00,32.7,21.9,29.96,NNW,331,6.0,14.0,64,0.00,,---,0.00,VWS V14.01,2013-02-09 07:20:00,
2013-02-09 02:25:00,32.7,21.9,29.96,NE,46,3.0,14.0,64,0.00,,---,0.00,VWS V14.01,2013-02-09 07:25:00,
2013-02-09 02:30:00,32.6,21.8,29.97,NW,308,2.0,14.0,64,0.00,,---,0.00,VWS V14.01,2013-02-09 07:30:00,
2013-02-09 02:35:00,32.6,21.8,29.96,North,8,6.0,14.0,64,0.00,,---,0.00,VWS V14.01,2013-02-09 07:35:00,
2013-02-09 02:40:00,32.5,22.1,29.97,NNW,347,0.0,14.0,65,0.00,,---,0.00,VWS V14.01,2013-02-09 07:40:00,
2013-02-09 02:45:00,32.4,22.0,29.97,WNW,292,2.0,14.0,65,0.00,,---,0.00,VWS V14.01,2013-02-09 07:45:00,
2013-02-09 02:50:00,32.3,21.9,29.97,NNW,331,7.0,14.0,65,0.00,,---,0.00,VWS V14.01,2013-02-09 07:50:00,
2013-02-09 02:55:00,32.2,21.8,29.97,NW,309,2.0,14.0,65,0.00,,---,0.00,VWS V14.01,2013-02-09 07:55:00,
2013-02-09 03:00:00,32.0,21.6,29.97,South,176,3.0,18.0,65,0.00,,---,0.00,VWS V14.01,2013-02-09 08:00:00,
2013-02-09 03:05:00,32.0,21.2,29.98,NNW,337,5.0,18.0,64,0.00,,---,0.00,VWS V14.01,2013-02-09 08:05:00,
2013-02-09 03:10:00,32.0,21.2,29.98,West,264,5.0,18.0,64,0.00,,---,0.00,VWS V14.01,2013-02-09 08:10:00,
2013-02-09 03:15:00,31.9,21.5,29.97,NW,304,8.0,18.0,65,0.00,,---,0.00,VWS V14.01,2013-02-09 08:15:00,
2013-02-09 03:20:00,31.8,21.4,29.98,North,357,6.0,18.0,65,0.00,,---,0.00,VWS V14.01,2013-02-09 08:20:00,
2013-02-09 03:25:00,31.7,21.3,29.98,West,264,2.0,18.0,65,0.00,,---,0.00,VWS V14.01,2013-02-09 08:25:00,
2013-02-09 03:30:00,31.6,20.8,29.99,NW,309,2.0,18.0,64,0.00,,---,0.00,VWS V14.01,2013-02-09 08:30:00,
2013-02-09 03:35:00,31.6,20.8,29.99,NNW,335,1.0,9.0,64,0.00,,---,0.00,VWS V14.01,2013-02-09 08:35:00,
2013-02-09 03:40:00,31.5,20.7,29.99,NW,320,4.0,9.0,64,0.00,,---,0.00,VWS V14.01,2013-02-09 08:40:00,
2013-02-09 03:45:00,31.4,20.6,30.00,NW,321,2.0,9.0,64,0.00,,---,0.00,VWS V14.01,2013-02-09 08:45:00,
2013-02-09 03:50:00,31.4,20.6,30.00,NW,323,4.0,9.0,64,0.00,,---,0.00,VWS V14.01,2013-02-09 08:50:00,
2013-02-09 03:55:00,31.4,21.0,30.00,WNW,288,3.0,9.0,65,0.00,,---,0.00,VWS V14.01,2013-02-09 08:55:00,
2013-02-09 04:00:00,31.3,20.9,30.00,NW,314,2.0,9.0,65,0.00,,---,0.00,VWS V14.01,2013-02-09 09:00:00,
2013-02-09 04:05:00,31.2,20.8,30.01,NNW,332,2.0,8.0,65,0.00,,---,0.00,VWS V14.01,2013-02-09 09:05:00,
2013-02-09 04:10:00,31.2,21.2,30.01,NNW,343,1.0,9.0,66,0.00,,---,0.00,VWS V14.01,2013-02-09 09:10:00,
2013-02-09 04:15:00,31.1,21.1,30.01,NW,324,3.0,9.0,66,0.00,,---,0.00,VWS V14.01,2013-02-09 09:15:00,
2013-02-09 04:20:00,31.1,21.1,30.01,West,278,2.0,9.0,66,0.00,,---,0.00,VWS V14.01,2013-02-09 09:20:00,
2013-02-09 04:25:00,31.1,21.1,30.01,WNW,301,3.0,9.0,66,0.00,,---,0.00,VWS V14.01,2013-02-09 09:25:00,
2013-02-09 04:30:00,31.0,21.0,30.02,NNW,336,3.0,9.0,66,0.00,,---,0.00,VWS V14.01,2013-02-09 09:30:00,
2013-02-09 04:35:00,31.0,21.3,30.02,WSW,243,1.0,9.0,67,0.00,,---,0.00,VWS V14.01,2013-02-09 09:35:00,
2013-02-09 04:40:00,31.0,21.3,30.03,SE,142,1.0,9.0,67,0.00,,---,0.00,VWS V14.01,2013-02-09 09:40:00,
2013-02-09 04:45:00,31.0,21.0,30.03,NNW,343,6.0,10.0,66,0.00,,---,0.00,VWS V14.01,2013-02-09 09:45:00,
2013-02-09 04:50:00,31.0,21.0,30.03,West,271,2.0,10.0,66,0.00,,---,0.00,VWS V14.01,2013-02-09 09:50:00,
2013-02-09 04:55:00,31.0,21.0,30.04,WNW,302,4.0,10.0,66,0.00,,---,0.00,VWS V14.01,2013-02-09 09:55:00,
2013-02-09 05:00:00,30.9,20.9,30.04,NW,304,4.0,10.0,66,0.00,,---,0.00,VWS V14.01,2013-02-09 10:00:00,
2013-02-09 05:05:00,30.9,20.9,30.04,North,354,1.0,7.0,66,0.00,,---,0.00,VWS V14.01,2013-02-09 10:05:00,
2013-02-09 05:10:00,30.8,20.8,30.04,NNW,333,5.0,7.0,66,0.00,,---,0.00,VWS V14.01,2013-02-09 10:10:00,
2013-02-09 05:15:00,30.8,20.8,30.05,NNW,343,1.0,8.0,66,0.00,,---,0.00,VWS V14.01,2013-02-09 10:15:00,
2013-02-09 05:20:00,30.7,20.7,30.05,NNW,335,6.0,8.0,66,0.00,,---,0.00,VWS V14.01,2013-02-09 10:20:00,
2013-02-09 05:25:00,30.7,20.7,30.06,NW,322,5.0,8.0,66,0.00,,---,0.00,VWS V14.01,2013-02-09 10:25:00,
2013-02-09 05:30:00,30.6,20.6,30.06,NE,38,2.0,8.0,66,0.00,,---,0.00,VWS V14.01,2013-02-09 10:30:00,
2013-02-09 05:35:00,30.6,20.2,30.06,NNW,329,5.0,6.0,65,0.00,,---,0.00,VWS V14.01,2013-02-09 10:35:00,
2013-02-09 05:40:00,30.5,20.5,30.06,NW,309,4.0,6.0,66,0.00,,---,0.00,VWS V14.01,2013-02-09 10:40:00,
2013-02-09 05:45:00,30.4,20.1,30.06,WNW,302,3.0,8.0,65,0.00,,---,0.00,VWS V14.01,2013-02-09 10:45:00,
2013-02-09 05:50:00,30.4,20.1,30.06,NW,312,3.0,8.0,65,0.00,,---,0.00,VWS V14.01,2013-02-09 10:50:00,
2013-02-09 05:55:00,30.3,20.0,30.06,WNW,301,1.0,8.0,65,0.00,,---,0.00,VWS V14.01,2013-02-09 10:55:00,
2013-02-09 06:00:00,30.3,19.6,30.07,South,176,4.0,9.0,64,0.00,,---,0.00,VWS V14.01,2013-02-09 11:00:00,
2013-02-09 06:05:00,30.3,19.6,30.07,North,359,7.0,12.0,64,0.00,,---,0.00,VWS V14.01,2013-02-09 11:05:00,
2013-02-09 06:10:00,30.2,19.5,30.07,North,349,3.0,12.0,64,0.00,,---,0.00,VWS V14.01,2013-02-09 11:10:00,
2013-02-09 06:15:00,30.2,19.5,30.07,NW,309,6.0,12.0,64,0.00,,---,0.00,VWS V14.01,2013-02-09 11:15:00,
2013-02-09 06:20:00,30.1,19.4,30.08,NNW,342,2.0,12.0,64,0.00,,---,0.00,VWS V14.01,2013-02-09 11:20:00,
2013-02-09 06:25:00,30.0,19.3,30.08,East,99,1.0,12.0,64,0.00,,---,0.00,VWS V14.01,2013-02-09 11:25:00,
2013-02-09 06:30:00,29.9,19.2,30.09,NNW,340,5.0,12.0,64,0.00,,---,0.00,VWS V14.01,2013-02-09 11:30:00,
2013-02-09 06:35:00,29.9,19.2,30.09,North,359,3.0,8.0,64,0.00,,---,0.00,VWS V14.01,2013-02-09 11:35:00,
2013-02-09 06:40:00,29.9,19.2,30.10,NNW,327,4.0,14.0,64,0.00,,---,0.00,VWS V14.01,2013-02-09 11:40:00,
2013-02-09 06:45:00,29.9,19.2,30.10,NW,323,6.0,14.0,64,0.00,,---,0.00,VWS V14.01,2013-02-09 11:45:00,
2013-02-09 06:50:00,29.8,19.5,30.11,North,359,4.0,14.0,65,0.00,,---,0.00,VWS V14.01,2013-02-09 11:50:00,
2013-02-09 06:55:00,29.8,19.5,30.11,WNW,288,3.0,14.0,65,0.00,,---,0.00,VWS V14.01,2013-02-09 11:55:00,
2013-02-09 07:00:00,29.8,19.5,30.11,NW,319,6.0,14.0,65,0.00,,---,0.00,VWS V14.01,2013-02-09 12:00:00,
2013-02-09 07:05:00,29.7,19.4,30.11,WNW,299,4.0,8.0,65,0.00,,---,0.00,VWS V14.01,2013-02-09 12:05:00,
2013-02-09 07:10:00,29.7,19.4,30.12,NNE,15,3.0,8.0,65,0.00,,---,0.00,VWS V14.01,2013-02-09 12:10:00,
2013-02-09 07:15:00,29.6,19.3,30.11,NNW,327,6.0,8.0,65,0.00,,---,0.00,VWS V14.01,2013-02-09 12:15:00,
2013-02-09 07:20:00,29.6,19.6,30.12,NNW,339,3.0,8.0,66,0.00,,---,0.00,VWS V14.01,2013-02-09 12:20:00,
2013-02-09 07:25:00,29.6,19.6,30.12,NW,314,2.0,11.0,66,0.00,,---,0.00,VWS V14.01,2013-02-09 12:25:00,
2013-02-09 07:30:00,29.6,19.6,30.12,West,274,4.0,11.0,66,0.00,,---,0.00,VWS V14.01,2013-02-09 12:30:00,
2013-02-09 07:35:00,29.6,19.3,30.12,NNW,339,4.0,7.0,65,0.00,,---,0.00,VWS V14.01,2013-02-09 12:35:00,
2013-02-09 07:40:00,29.8,19.5,30.12,NNW,336,3.0,7.0,65,0.00,,---,0.00,VWS V14.01,2013-02-09 12:40:00,
2013-02-09 07:45:00,30.0,19.7,30.13,NNW,328,3.0,10.0,65,0.00,,---,0.00,VWS V14.01,2013-02-09 12:45:00,
2013-02-09 07:50:00,30.2,19.9,30.13,NNW,342,4.0,10.0,65,0.00,,---,0.00,VWS V14.01,2013-02-09 12:50:00,
2013-02-09 07:55:00,30.3,19.6,30.14,NNW,346,4.0,10.0,64,0.00,,---,0.00,VWS V14.01,2013-02-09 12:55:00,
2013-02-09 08:00:00,30.5,19.8,30.14,NNE,20,1.0,10.0,64,0.00,,---,0.00,VWS V14.01,2013-02-09 13:00:00,
2013-02-09 08:05:00,30.7,20.0,30.14,North,359,3.0,5.0,64,0.00,,---,0.00,VWS V14.01,2013-02-09 13:05:00,
2013-02-09 08:10:00,30.9,20.5,30.15,NW,325,4.0,6.0,65,0.00,,---,0.00,VWS V14.01,2013-02-09 13:10:00,
2013-02-09 08:15:00,31.1,20.4,30.15,SW,233,3.0,7.0,64,0.00,,---,0.00,VWS V14.01,2013-02-09 13:15:00,
2013-02-09 08:20:00,31.1,20.4,30.15,WNW,285,2.0,8.0,64,0.00,,---,0.00,VWS V14.01,2013-02-09 13:20:00,
2013-02-09 08:25:00,31.2,20.1,30.15,NW,319,6.0,14.0,63,0.00,,---,0.00,VWS V14.01,2013-02-09 13:25:00,
2013-02-09 08:30:00,31.2,20.1,30.15,NW,317,3.0,14.0,63,0.00,,---,0.00,VWS V14.01,2013-02-09 13:30:00,
2013-02-09 08:35:00,31.4,20.6,30.16,West,277,2.0,6.0,64,0.00,,---,0.00,VWS V14.01,2013-02-09 13:35:00,
2013-02-09 08:40:00,31.8,20.7,30.16,West,271,3.0,7.0,63,0.00,,---,0.00,VWS V14.01,2013-02-09 13:40:00,
2013-02-09 08:45:00,31.9,20.8,30.16,NW,306,2.0,7.0,63,0.00,,---,0.00,VWS V14.01,2013-02-09 13:45:00,
2013-02-09 08:50:00,31.8,20.3,30.16,NW,318,3.0,9.0,62,0.00,,---,0.00,VWS V14.01,2013-02-09 13:50:00,
2013-02-09 08:55:00,32.1,21.3,30.17,West,260,2.0,9.0,64,0.00,,---,0.00,VWS V14.01,2013-02-09 13:55:00,
2013-02-09 09:00:00,32.0,20.5,30.17,NNW,333,2.0,9.0,62,0.00,,---,0.00,VWS V14.01,2013-02-09 14:00:00,
2013-02-09 09:05:00,32.5,20.9,30.17,NW,324,2.0,5.0,62,0.00,,---,0.00,VWS V14.01,2013-02-09 14:05:00,
2013-02-09 09:10:00,32.4,20.5,30.18,NW,316,5.0,8.0,61,0.00,,---,0.00,VWS V14.01,2013-02-09 14:10:00,
2013-02-09 09:15:00,32.3,20.0,30.18,NNW,332,2.0,8.0,60,0.00,,---,0.00,VWS V14.01,2013-02-09 14:15:00,
2013-02-09 09:20:00,32.6,20.3,30.18,NNW,330,2.0,8.0,60,0.00,,---,0.00,VWS V14.01,2013-02-09 14:20:00,
2013-02-09 09:25:00,32.9,20.2,30.18,North,359,1.0,8.0,59,0.00,,---,0.00,VWS V14.01,2013-02-09 14:25:00,
2013-02-09 09:30:00,32.8,20.5,30.18,NW,326,4.0,9.0,60,0.00,,---,0.00,VWS V14.01,2013-02-09 14:30:00,
2013-02-09 09:35:00,33.1,21.1,30.18,WNW,293,3.0,8.0,61,0.00,,---,0.00,VWS V14.01,2013-02-09 14:35:00,
2013-02-09 09:40:00,33.1,20.7,30.18,North,359,2.0,8.0,60,0.00,,---,0.00,VWS V14.01,2013-02-09 14:40:00,
2013-02-09 09:45:00,33.2,20.8,30.18,WNW,293,6.0,8.0,60,0.00,,---,0.00,VWS V14.01,2013-02-09 14:45:00,
2013-02-09 09:50:00,32.6,20.3,30.19,NW,324,4.0,9.0,60,0.00,,---,0.00,VWS V14.01,2013-02-09 14:50:00,
2013-02-09 09:55:00,32.7,20.8,30.19,NW,311,3.0,10.0,61,0.00,,---,0.00,VWS V14.01,2013-02-09 14:55:00,
2013-02-09 10:00:00,33.1,21.5,30.19,NNW,331,5.0,10.0,62,0.00,,---,0.00,VWS V14.01,2013-02-09 15:00:00,
2013-02-09 10:05:00,33.1,21.1,30.20,West,278,5.0,6.0,61,0.00,,---,0.00,VWS V14.01,2013-02-09 15:05:00,
2013-02-09 10:10:00,33.2,20.8,30.20,North,357,3.0,11.0,60,0.00,,---,0.00,VWS V14.01,2013-02-09 15:10:00,
2013-02-09 10:15:00,33.0,20.2,30.20,NW,318,4.0,11.0,59,0.00,,---,0.00,VWS V14.01,2013-02-09 15:15:00,
2013-02-09 10:20:00,33.1,20.4,30.20,WNW,298,2.0,11.0,59,0.00,,---,0.00,VWS V14.01,2013-02-09 15:20:00,
2013-02-09 10:25:00,33.2,20.8,30.20,West,278,4.0,11.0,60,0.00,,---,0.00,VWS V14.01,2013-02-09 15:25:00,
2013-02-09 10:30:00,33.2,20.8,30.20,North,354,3.0,11.0,60,0.00,,---,0.00,VWS V14.01,2013-02-09 15:30:00,
2013-02-09 10:35:00,33.6,21.2,30.20,West,265,6.0,7.0,60,0.00,,---,0.00,VWS V14.01,2013-02-09 15:35:00,
2013-02-09 10:40:00,33.6,20.4,30.20,WNW,297,2.0,7.0,58,0.00,,---,0.00,VWS V14.01,2013-02-09 15:40:00,
2013-02-09 10:45:00,33.4,20.2,30.21,NNE,33,1.0,8.0,58,0.00,,---,0.00,VWS V14.01,2013-02-09 15:45:00,
2013-02-09 10:50:00,33.5,20.3,30.21,North,4,1.0,10.0,58,0.00,,---,0.00,VWS V14.01,2013-02-09 15:50:00,
2013-02-09 10:55:00,33.7,20.5,30.22,NW,321,2.0,10.0,58,0.00,,---,0.00,VWS V14.01,2013-02-09 15:55:00,
2013-02-09 11:00:00,33.9,20.3,30.22,West,270,4.0,12.0,57,0.00,,---,0.00,VWS V14.01,2013-02-09 16:00:00,
2013-02-09 11:05:00,33.5,20.3,30.22,NNW,343,3.0,7.0,58,0.00,,---,0.00,VWS V14.01,2013-02-09 16:05:00,
2013-02-09 11:10:00,33.8,20.6,30.22,WSW,257,4.0,9.0,58,0.00,,---,0.00,VWS V14.01,2013-02-09 16:10:00,
2013-02-09 11:15:00,33.9,20.3,30.22,WSW,252,4.0,9.0,57,0.00,,---,0.00,VWS V14.01,2013-02-09 16:15:00,
2013-02-09 11:20:00,34.1,20.1,30.22,NNW,341,3.0,9.0,56,0.00,,---,0.00,VWS V14.01,2013-02-09 16:20:00,
2013-02-09 11:25:00,34.3,20.7,30.22,NNW,328,4.0,9.0,57,0.00,,---,0.00,VWS V14.01,2013-02-09 16:25:00,
2013-02-09 11:30:00,34.8,21.1,30.23,NW,321,0.0,9.0,57,0.00,,---,0.00,VWS V14.01,2013-02-09 16:30:00,
2013-02-09 11:35:00,34.7,20.2,30.22,WSW,242,1.0,11.0,55,0.00,,---,0.00,VWS V14.01,2013-02-09 16:35:00,
2013-02-09 11:40:00,34.8,20.7,30.23,WSW,252,3.0,11.0,56,0.00,,---,0.00,VWS V14.01,2013-02-09 16:40:00,
2013-02-09 11:45:00,34.7,21.0,30.23,NW,307,5.0,14.0,57,0.00,,---,0.00,VWS V14.01,2013-02-09 16:45:00,
2013-02-09 11:50:00,34.7,20.6,30.23,NNW,340,4.0,14.0,56,0.00,,---,0.00,VWS V14.01,2013-02-09 16:50:00,
2013-02-09 11:55:00,34.9,20.8,30.23,WNW,285,8.0,14.0,56,0.00,,---,0.00,VWS V14.01,2013-02-09 16:55:00,
2013-02-09 12:00:00,35.0,20.5,30.22,NW,323,3.0,14.0,55,0.00,,---,0.00,VWS V14.01,2013-02-09 17:00:00,
2013-02-09 12:05:00,35.1,20.6,30.22,North,1,3.0,7.0,55,0.00,,---,0.00,VWS V14.01,2013-02-09 17:05:00,
2013-02-09 12:10:00,35.0,20.0,30.22,WNW,303,2.0,8.0,54,0.00,,---,0.00,VWS V14.01,2013-02-09 17:10:00,
2013-02-09 12:15:00,34.9,20.4,30.22,NNW,333,3.0,9.0,55,0.00,,---,0.00,VWS V14.01,2013-02-09 17:15:00,
2013-02-09 12:20:00,35.6,20.6,30.22,East,89,1.0,9.0,54,0.00,,---,0.00,VWS V14.01,2013-02-09 17:20:00,
2013-02-09 12:25:00,35.9,20.9,30.22,NW,311,0.0,9.0,54,0.00,,---,0.00,VWS V14.01,2013-02-09 17:25:00,
2013-02-09 12:30:00,36.1,21.9,30.22,West,264,1.0,10.0,56,0.00,,---,0.00,VWS V14.01,2013-02-09 17:30:00,
2013-02-09 12:35:00,36.4,21.4,30.22,NNW,331,3.0,8.0,54,0.00,,---,0.00,VWS V14.01,2013-02-09 17:35:00,
2013-02-09 12:40:00,36.4,20.9,30.22,West,278,3.0,8.0,53,0.00,,---,0.00,VWS V14.01,2013-02-09 17:40:00,
2013-02-09 12:45:00,36.0,20.5,30.22,SSW,200,2.0,8.0,53,0.00,,---,0.00,VWS V14.01,2013-02-09 17:45:00,
2013-02-09 12:50:00,36.2,20.7,30.22,WNW,302,2.0,8.0,53,0.00,,---,0.00,VWS V14.01,2013-02-09 17:50:00,
2013-02-09 12:55:00,36.5,20.6,30.22,West,264,3.0,8.0,52,0.00,,---,0.00,VWS V14.01,2013-02-09 17:55:00,
2013-02-09 13:00:00,36.8,20.8,30.22,WNW,285,2.0,8.0,52,0.00,,---,0.00,VWS V14.01,2013-02-09 18:00:00,
2013-02-09 13:05:00,36.8,20.4,30.22,NE,39,1.0,7.0,51,0.00,,---,0.00,VWS V14.01,2013-02-09 18:05:00,
2013-02-09 13:10:00,36.7,20.8,30.22,West,280,2.0,10.0,52,0.00,,---,0.00,VWS V14.01,2013-02-09 18:10:00,
2013-02-09 13:15:00,37.3,20.9,30.22,NW,315,4.0,11.0,51,0.00,,---,0.00,VWS V14.01,2013-02-09 18:15:00,
2013-02-09 13:20:00,37.1,20.2,30.22,West,278,3.0,11.0,50,0.00,,---,0.00,VWS V14.01,2013-02-09 18:20:00,
2013-02-09 13:25:00,37.1,20.2,30.22,NW,316,4.0,11.0,50,0.00,,---,0.00,VWS V14.01,2013-02-09 18:25:00,
2013-02-09 13:30:00,37.4,21.4,30.22,NNW,347,3.0,11.0,52,0.00,,---,0.00,VWS V14.01,2013-02-09 18:30:00,
2013-02-09 13:35:00,37.7,20.8,30.22,North,351,3.0,5.0,50,0.00,,---,0.00,VWS V14.01,2013-02-09 18:35:00,
2013-02-09 13:40:00,37.7,21.2,30.22,North,351,6.0,6.0,51,0.00,,---,0.00,VWS V14.01,2013-02-09 18:40:00,
2013-02-09 13:45:00,37.9,21.4,30.22,SW,233,3.0,6.0,51,0.00,,---,0.00,VWS V14.01,2013-02-09 18:45:00,
2013-02-09 13:50:00,38.2,21.7,30.22,NNW,332,0.0,11.0,51,0.00,,---,0.00,VWS V14.01,2013-02-09 18:50:00,
2013-02-09 13:55:00,38.5,21.5,30.22,NW,319,6.0,11.0,50,0.00,,---,0.00,VWS V14.01,2013-02-09 18:55:00,
2013-02-09 14:00:00,38.3,21.3,30.22,NNW,333,2.0,11.0,50,0.00,,---,0.00,VWS V14.01,2013-02-09 19:00:00,
2013-02-09 14:05:00,38.4,20.9,30.22,NW,321,1.0,9.0,49,0.00,,---,0.00,VWS V14.01,2013-02-09 19:05:00,
2013-02-09 14:10:00,38.4,21.4,30.22,NNW,335,3.0,9.0,50,0.00,,---,0.00,VWS V14.01,2013-02-09 19:10:00,
2013-02-09 14:14:00,38.3,21.3,30.22,NW,319,2.0,10.0,50,0.00,,---,0.00,VWS V14.01,2013-02-09 19:14:00,
2013-02-09 14:19:00,38.6,21.1,30.22,NW,319,3.0,10.0,49,0.00,,---,0.00,VWS V14.01,2013-02-09 19:19:00,
2013-02-09 14:24:00,38.5,21.0,30.22,WNW,291,2.0,10.0,49,0.00,,---,0.00,VWS V14.01,2013-02-09 19:24:00,
2013-02-09 14:29:00,38.5,21.0,30.23,NW,321,5.0,10.0,49,0.00,,---,0.00,VWS V14.01,2013-02-09 19:29:00,
2013-02-09 14:30:00,39.7,20.1,30.25,West,264,5.0,15.0,45,0.00,,---,0.00,VWS V14.01,2013-02-09 19:30:00,
2013-02-09 14:34:00,38.6,21.1,30.23,NW,316,2.0,5.0,49,0.00,,---,0.00,VWS V14.01,2013-02-09 19:34:00,
2013-02-09 14:39:00,39.3,20.8,30.24,West,259,1.0,7.0,47,0.00,,---,0.00,VWS V14.01,2013-02-09 19:39:00,
2013-02-09 14:44:00,39.4,20.9,30.24,NNW,333,4.0,9.0,47,0.00,,---,0.00,VWS V14.01,2013-02-09 19:44:00,
2013-02-09 14:49:00,39.2,20.7,30.24,West,271,8.0,9.0,47,0.00,,---,0.00,VWS V14.01,2013-02-09 19:49:00,
2013-02-09 14:54:00,39.2,20.7,30.24,NW,307,2.0,9.0,47,0.00,,---,0.00,VWS V14.01,2013-02-09 19:54:00,
2013-02-09 14:59:00,39.3,21.3,30.24,North,359,3.0,9.0,48,0.00,,---,0.00,VWS V14.01,2013-02-09 19:59:00,
2013-02-09 15:00:00,39.2,20.2,30.25,North,356,2.0,9.0,46,0.00,,---,0.00,VWS V14.01,2013-02-09 20:00:00,
2013-02-09 15:04:00,39.7,20.6,30.24,SW,221,2.0,15.0,46,0.00,,---,0.00,VWS V14.01,2013-02-09 20:04:00,
2013-02-09 15:09:00,39.7,20.6,30.24,West,275,8.0,15.0,46,0.00,,---,0.00,VWS V14.01,2013-02-09 20:09:00,
2013-02-09 15:14:00,39.5,20.5,30.25,NNW,337,3.0,15.0,46,0.00,,---,0.00,VWS V14.01,2013-02-09 20:14:00,
2013-02-09 15:19:00,39.4,20.9,30.25,NW,316,3.0,15.0,47,0.00,,---,0.00,VWS V14.01,2013-02-09 20:19:00,
2013-02-09 15:24:00,39.4,20.9,30.25,NW,304,0.0,15.0,47,0.00,,---,0.00,VWS V14.01,2013-02-09 20:24:00,
2013-02-09 15:29:00,39.7,20.6,30.25,SW,236,5.0,15.0,46,0.00,,---,0.00,VWS V14.01,2013-02-09 20:29:00,
2013-02-09 15:30:00,39.0,20.0,30.27,WNW,302,2.0,8.0,46,0.00,,---,0.00,VWS V14.01,2013-02-09 20:30:00,
2013-02-09 15:34:00,39.8,20.2,30.25,NW,313,2.0,9.0,45,0.00,,---,0.00,VWS V14.01,2013-02-09 20:34:00,
2013-02-09 15:39:00,39.6,20.5,30.25,NW,321,1.0,9.0,46,0.00,,---,0.00,VWS V14.01,2013-02-09 20:39:00,
2013-02-09 15:44:00,39.6,20.5,30.26,WNW,293,3.0,9.0,46,0.00,,---,0.00,VWS V14.01,2013-02-09 20:44:00,
2013-02-09 15:49:00,39.4,20.9,30.26,WNW,302,4.0,9.0,47,0.00,,---,0.00,VWS V14.01,2013-02-09 20:49:00,
2013-02-09 15:54:00,39.2,20.7,30.26,North,2,2.0,9.0,47,0.00,,---,0.00,VWS V14.01,2013-02-09 20:54:00,
2013-02-09 15:59:00,39.2,20.2,30.25,West,266,2.0,9.0,46,0.00,,---,0.00,VWS V14.01,2013-02-09 20:59:00,
2013-02-09 16:00:00,38.4,19.9,30.27,WNW,300,0.0,7.0,47,0.00,,---,0.00,VWS V14.01,2013-02-09 21:00:00,
2013-02-09 16:04:00,39.1,20.1,30.26,West,275,0.0,5.0,46,0.00,,---,0.00,VWS V14.01,2013-02-09 21:04:00,
2013-02-09 16:09:00,39.3,20.8,30.26,WNW,286,2.0,7.0,47,0.00,,---,0.00,VWS V14.01,2013-02-09 21:09:00,
2013-02-09 16:14:00,39.3,20.3,30.26,North,359,1.0,7.0,46,0.00,,---,0.00,VWS V14.01,2013-02-09 21:14:00,
2013-02-09 16:19:00,39.1,20.6,30.26,NW,316,3.0,7.0,47,0.00,,---,0.00,VWS V14.01,2013-02-09 21:19:00,
2013-02-09 16:24:00,39.1,20.6,30.26,NW,314,4.0,8.0,47,0.00,,---,0.00,VWS V14.01,2013-02-09 21:24:00,
2013-02-09 16:29:00,39.0,20.0,30.26,NW,309,3.0,8.0,46,0.00,,---,0.00,VWS V14.01,2013-02-09 21:29:00,
2013-02-09 16:30:00,37.8,19.4,30.29,West,259,0.0,6.0,47,0.00,,---,0.00,VWS V14.01,2013-02-09 21:30:00,
2013-02-09 16:34:00,39.0,19.5,30.27,NW,307,0.0,3.0,45,0.00,,---,0.00,VWS V14.01,2013-02-09 21:34:00,
2013-02-09 16:39:00,38.9,20.4,30.27,North,359,3.0,5.0,47,0.00,,---,0.00,VWS V14.01,2013-02-09 21:39:00,
2013-02-09 16:44:00,38.9,19.9,30.27,West,278,1.0,7.0,46,0.00,,---,0.00,VWS V14.01,2013-02-09 21:44:00,
2013-02-09 16:49:00,39.0,20.0,30.27,WNW,288,0.0,7.0,46,0.00,,---,0.00,VWS V14.01,2013-02-09 21:49:00,
2013-02-09 16:54:00,38.6,20.1,30.27,NW,316,0.0,7.0,47,0.00,,---,0.00,VWS V14.01,2013-02-09 21:54:00,
2013-02-09 16:59:00,38.5,20.0,30.27,NW,317,0.0,7.0,47,0.00,,---,0.00,VWS V14.01,2013-02-09 21:59:00,
2013-02-09 17:00:00,36.1,19.3,30.29,WNW,294,0.0,4.0,50,0.00,,---,0.00,VWS V14.01,2013-02-09 22:00:00,
2013-02-09 17:04:00,38.3,20.4,30.27,WNW,288,3.0,3.0,48,0.00,,---,0.00,VWS V14.01,2013-02-09 22:04:00,
2013-02-09 17:09:00,38.2,20.2,30.28,NW,310,1.0,3.0,48,0.00,,---,0.00,VWS V14.01,2013-02-09 22:09:00,
2013-02-09 17:14:00,38.0,20.1,30.28,WNW,286,0.0,3.0,48,0.00,,---,0.00,VWS V14.01,2013-02-09 22:14:00,
2013-02-09 17:19:00,38.0,19.6,30.28,West,276,2.0,5.0,47,0.00,,---,0.00,VWS V14.01,2013-02-09 22:19:00,
2013-02-09 17:24:00,38.0,19.1,30.29,NW,321,0.0,6.0,46,0.00,,---,0.00,VWS V14.01,2013-02-09 22:24:00,
2013-02-09 17:29:00,37.8,19.4,30.29,West,259,0.0,6.0,47,0.00,,---,0.00,VWS V14.01,2013-02-09 22:29:00,
2013-02-09 17:30:00,35.2,19.8,30.31,WNW,293,1.0,3.0,53,0.00,,---,0.00,VWS V14.01,2013-02-09 22:30:00,
2013-02-09 17:34:00,37.7,19.3,30.29,West,272,0.0,4.0,47,0.00,,---,0.00,VWS V14.01,2013-02-09 22:34:00,
2013-02-09 17:39:00,37.3,19.4,30.29,West,261,0.0,4.0,48,0.00,,---,0.00,VWS V14.01,2013-02-09 22:39:00,
2013-02-09 17:44:00,37.1,19.2,30.30,WSW,248,0.0,4.0,48,0.00,,---,0.00,VWS V14.01,2013-02-09 22:44:00,
2013-02-09 17:49:00,37.0,19.6,30.29,WNW,294,0.0,4.0,49,0.00,,---,0.00,VWS V14.01,2013-02-09 22:49:00,
2013-02-09 17:54:00,36.7,19.4,30.30,WNW,294,0.0,4.0,49,0.00,,---,0.00,VWS V14.01,2013-02-09 22:54:00,
2013-02-09 17:59:00,36.1,19.3,30.30,WNW,294,1.0,4.0,50,0.00,,---,0.00,VWS V14.01,2013-02-09 22:59:00,
2013-02-09 18:00:00,35.0,18.7,30.32,WNW,283,0.0,4.0,51,0.00,,---,0.00,VWS V14.01,2013-02-09 23:00:00,
2013-02-09 18:04:00,36.0,19.2,30.30,West,281,0.0,3.0,50,0.00,,---,0.00,VWS V14.01,2013-02-09 23:04:00,
2013-02-09 18:09:00,35.9,19.1,30.30,West,281,0.0,3.0,50,0.00,,---,0.00,VWS V14.01,2013-02-09 23:09:00,
2013-02-09 18:14:00,35.6,19.3,30.30,WNW,288,1.0,3.0,51,0.00,,---,0.00,VWS V14.01,2013-02-09 23:14:00,
2013-02-09 18:19:00,35.5,19.6,30.31,WNW,287,0.0,3.0,52,0.00,,---,0.00,VWS V14.01,2013-02-09 23:19:00,
2013-02-09 18:24:00,35.4,19.5,30.31,West,279,0.0,3.0,52,0.00,,---,0.00,VWS V14.01,2013-02-09 23:24:00,
2013-02-09 18:29:00,35.2,19.8,30.31,West,279,1.0,3.0,53,0.00,,---,0.00,VWS V14.01,2013-02-09 23:29:00,
2013-02-09 18:30:00,34.4,18.6,30.33,WNW,293,1.0,2.0,52,0.00,,---,0.00,VWS V14.01,2013-02-09 23:30:00,
2013-02-09 18:34:00,35.2,19.8,30.32,WNW,293,0.0,2.0,53,0.00,,---,0.00,VWS V14.01,2013-02-09 23:34:00,
2013-02-09 18:39:00,35.3,19.5,30.32,WNW,293,0.0,2.0,52,0.00,,---,0.00,VWS V14.01,2013-02-09 23:39:00,
2013-02-09 18:44:00,35.2,19.4,30.32,WNW,303,1.0,2.0,52,0.00,,---,0.00,VWS V14.01,2013-02-09 23:44:00,
2013-02-09 18:49:00,35.2,19.4,30.32,West,269,1.0,4.0,52,0.00,,---,0.00,VWS V14.01,2013-02-09 23:49:00,
2013-02-09 18:54:00,35.2,18.9,30.32,West,262,1.0,4.0,51,0.00,,---,0.00,VWS V14.01,2013-02-09 23:54:00,
2013-02-09 18:59:00,35.1,18.8,30.32,WNW,288,0.0,4.0,51,0.00,,---,0.00,VWS V14.01,2013-02-09 23:59:00,
2013-02-09 19:00:00,33.5,18.6,30.34,West,271,0.0,3.0,54,0.00,,---,0.00,VWS V14.01,2013-02-10 00:00:00,
2013-02-09 19:04:00,34.9,18.6,30.33,WNW,283,0.0,2.0,51,0.00,,---,0.00,VWS V14.01,2013-02-10 00:04:00,
2013-02-09 19:09:00,34.7,18.4,30.33,West,259,1.0,2.0,51,0.00,,---,0.00,VWS V14.01,2013-02-10 00:09:00,
2013-02-09 19:14:00,34.7,18.4,30.33,West,273,1.0,2.0,51,0.00,,---,0.00,VWS V14.01,2013-02-10 00:14:00,
2013-02-09 19:19:00,34.7,18.9,30.33,SW,229,1.0,2.0,52,0.00,,---,0.00,VWS V14.01,2013-02-10 00:19:00,
2013-02-09 19:24:00,34.6,18.3,30.34,WNW,295,0.0,2.0,51,0.00,,---,0.00,VWS V14.01,2013-02-10 00:24:00,
2013-02-09 19:29:00,34.4,18.6,30.34,WNW,293,1.0,2.0,52,0.00,,---,0.00,VWS V14.01,2013-02-10 00:29:00,
2013-02-09 19:30:00,33.4,18.1,30.34,West,277,0.0,3.0,53,0.00,,---,0.00,VWS V14.01,2013-02-10 00:30:00,
2013-02-09 19:34:00,34.3,18.5,30.33,WNW,293,0.0,1.0,52,0.00,,---,0.00,VWS V14.01,2013-02-10 00:34:00,
2013-02-09 19:39:00,34.1,18.3,30.33,WNW,293,0.0,1.0,52,0.00,,---,0.00,VWS V14.01,2013-02-10 00:39:00,
2013-02-09 19:44:00,33.9,18.1,30.33,WNW,293,0.0,1.0,52,0.00,,---,0.00,VWS V14.01,2013-02-10 00:44:00,
2013-02-09 19:49:00,33.5,17.8,30.34,WNW,293,0.0,1.0,52,0.00,,---,0.00,VWS V14.01,2013-02-10 00:49:00,
2013-02-09 19:54:00,33.4,18.1,30.34,WNW,293,0.0,1.0,53,0.00,,---,0.00,VWS V14.01,2013-02-10 00:54:00,
2013-02-09 19:59:00,33.5,18.2,30.34,West,271,2.0,2.0,53,0.00,,---,0.00,VWS V14.01,2013-02-10 00:59:00,
2013-02-09 20:00:00,32.0,18.1,30.35,West,277,0.0,1.0,56,0.00,,---,0.00,VWS V14.01,2013-02-10 01:00:00,
2013-02-09 20:04:00,33.5,18.2,30.34,West,271,0.0,1.0,53,0.00,,---,0.00,VWS V14.01,2013-02-10 01:04:00,
2013-02-09 20:09:00,33.4,18.1,30.34,West,265,0.0,2.0,53,0.00,,---,0.00,VWS V14.01,2013-02-10 01:09:00,
2013-02-09 20:14:00,33.5,17.8,30.35,West,265,0.0,2.0,52,0.00,,---,0.00,VWS V14.01,2013-02-10 01:14:00,
2013-02-09 20:19:00,33.5,18.2,30.35,WSW,249,1.0,2.0,53,0.00,,---,0.00,VWS V14.01,2013-02-10 01:19:00,
2013-02-09 20:24:00,33.5,17.8,30.34,WSW,249,0.0,2.0,52,0.00,,---,0.00,VWS V14.01,2013-02-10 01:24:00,
2013-02-09 20:29:00,33.5,18.2,30.34,West,277,0.0,3.0,53,0.00,,---,0.00,VWS V14.01,2013-02-10 01:29:00,
2013-02-09 20:30:00,31.0,18.0,30.36,West,277,0.0,1.0,58,0.00,,---,0.00,VWS V14.01,2013-02-10 01:30:00,
2013-02-09 20:34:00,33.1,17.4,30.34,West,277,0.0,0.0,52,0.00,,---,0.00,VWS V14.01,2013-02-10 01:34:00,
2013-02-09 20:39:00,32.7,17.5,30.34,West,277,0.0,0.0,53,0.00,,---,0.00,VWS V14.01,2013-02-10 01:39:00,
2013-02-09 20:44:00,32.5,17.7,30.34,West,277,0.0,1.0,54,0.00,,---,0.00,VWS V14.01,2013-02-10 01:44:00,
2013-02-09 20:49:00,32.3,17.5,30.34,West,277,0.0,1.0,54,0.00,,---,0.00,VWS V14.01,2013-02-10 01:49:00,
2013-02-09 20:54:00,32.2,17.9,30.35,West,277,0.0,1.0,55,0.00,,---,0.00,VWS V14.01,2013-02-10 01:54:00,
2013-02-09 20:59:00,32.0,18.1,30.35,West,277,1.0,1.0,56,0.00,,---,0.00,VWS V14.01,2013-02-10 01:59:00,
2013-02-09 21:00:00,30.3,17.7,30.37,West,277,0.0,1.0,59,0.00,,---,0.00,VWS V14.01,2013-02-10 02:00:00,
2013-02-09 21:04:00,31.9,18.0,30.35,West,277,0.0,1.0,56,0.00,,---,0.00,VWS V14.01,2013-02-10 02:04:00,
2013-02-09 21:09:00,31.7,17.4,30.35,West,277,0.0,1.0,55,0.00,,---,0.00,VWS V14.01,2013-02-10 02:09:00,
2013-02-09 21:14:00,31.4,17.5,30.35,West,277,0.0,1.0,56,0.00,,---,0.00,VWS V14.01,2013-02-10 02:14:00,
2013-02-09 21:19:00,31.2,17.8,30.35,West,277,0.0,1.0,57,0.00,,---,0.00,VWS V14.01,2013-02-10 02:19:00,
2013-02-09 21:24:00,31.1,18.1,30.36,West,277,0.0,1.0,58,0.00,,---,0.00,VWS V14.01,2013-02-10 02:24:00,
2013-02-09 21:29:00,31.0,18.0,30.36,West,277,0.0,1.0,58,0.00,,---,0.00,VWS V14.01,2013-02-10 02:29:00,
2013-02-09 21:30:00,29.9,18.5,30.37,West,277,0.0,0.0,62,0.00,,---,0.00,VWS V14.01,2013-02-10 02:30:00,
2013-02-09 21:34:00,31.1,18.1,30.36,West,277,0.0,1.0,58,0.00,,---,0.00,VWS V14.01,2013-02-10 02:34:00,
2013-02-09 21:39:00,31.2,17.8,30.37,West,277,0.0,1.0,57,0.00,,---,0.00,VWS V14.01,2013-02-10 02:39:00,
2013-02-09 21:44:00,31.0,17.6,30.37,West,277,0.0,1.0,57,0.00,,---,0.00,VWS V14.01,2013-02-10 02:44:00,
2013-02-09 21:49:00,30.7,17.7,30.37,West,277,0.0,1.0,58,0.00,,---,0.00,VWS V14.01,2013-02-10 02:49:00,
2013-02-09 21:54:00,30.5,17.9,30.37,West,277,0.0,1.0,59,0.00,,---,0.00,VWS V14.01,2013-02-10 02:54:00,
2013-02-09 21:59:00,30.4,17.8,30.37,West,277,0.0,1.0,59,0.00,,---,0.00,VWS V14.01,2013-02-10 02:59:00,
2013-02-09 22:00:00,29.4,18.4,30.38,West,277,1.0,2.0,63,0.00,,---,0.00,VWS V14.01,2013-02-10 03:00:00,
2013-02-09 22:04:00,30.2,18.0,30.37,West,277,0.0,0.0,60,0.00,,---,0.00,VWS V14.01,2013-02-10 03:04:00,
2013-02-09 22:09:00,30.1,17.9,30.37,West,277,0.0,0.0,60,0.00,,---,0.00,VWS V14.01,2013-02-10 03:09:00,
2013-02-09 22:14:00,30.0,18.2,30.38,West,277,0.0,0.0,61,0.00,,---,0.00,VWS V14.01,2013-02-10 03:14:00,
2013-02-09 22:19:00,30.0,18.2,30.37,West,277,0.0,0.0,61,0.00,,---,0.00,VWS V14.01,2013-02-10 03:19:00,
2013-02-09 22:24:00,30.0,18.2,30.37,West,277,0.0,0.0,61,0.00,,---,0.00,VWS V14.01,2013-02-10 03:24:00,
2013-02-09 22:29:00,29.9,18.1,30.37,West,277,0.0,0.0,61,0.00,,---,0.00,VWS V14.01,2013-02-10 03:29:00,
2013-02-09 22:30:00,29.9,17.7,30.38,SSW,206,0.0,1.0,60,0.00,,---,0.00,VWS V14.01,2013-02-10 03:30:00,
2013-02-09 22:34:00,29.7,18.3,30.37,West,277,0.0,0.0,62,0.00,,---,0.00,VWS V14.01,2013-02-10 03:34:00,
2013-02-09 22:39:00,29.3,17.9,30.37,West,277,0.0,0.0,62,0.00,,---,0.00,VWS V14.01,2013-02-10 03:39:00,
2013-02-09 22:44:00,29.2,18.2,30.37,West,277,0.0,0.0,63,0.00,,---,0.00,VWS V14.01,2013-02-10 03:44:00,
2013-02-09 22:49:00,29.2,18.2,30.37,West,277,0.0,1.0,63,0.00,,---,0.00,VWS V14.01,2013-02-10 03:49:00,
2013-02-09 22:54:00,29.2,18.2,30.37,West,277,1.0,1.0,63,0.00,,---,0.00,VWS V14.01,2013-02-10 03:54:00,
2013-02-09 22:59:00,29.3,18.3,30.38,West,277,0.0,2.0,63,0.00,,---,0.00,VWS V14.01,2013-02-10 03:59:00,
2013-02-09 23:00:00,29.5,18.5,30.40,SSW,206,0.0,1.0,63,0.00,,---,0.00,VWS V14.01,2013-02-10 04:00:00,
2013-02-09 23:04:00,29.4,18.4,30.38,West,277,0.0,1.0,63,0.00,,---,0.00,VWS V14.01,2013-02-10 04:04:00,
2013-02-09 23:09:00,29.5,18.1,30.38,West,277,0.0,1.0,62,0.00,,---,0.00,VWS V14.01,2013-02-10 04:09:00,
2013-02-09 23:14:00,29.4,18.4,30.38,West,277,0.0,1.0,63,0.00,,---,0.00,VWS V14.01,2013-02-10 04:14:00,
2013-02-09 23:19:00,29.5,17.7,30.38,West,277,0.0,1.0,61,0.00,,---,0.00,VWS V14.01,2013-02-10 04:19:00,
2013-02-09 23:24:00,29.8,18.0,30.38,WSW,246,0.0,1.0,61,0.00,,---,0.00,VWS V14.01,2013-02-10 04:24:00,
2013-02-09 23:29:00,29.8,17.6,30.38,SSW,206,0.0,1.0,60,0.00,,---,0.00,VWS V14.01,2013-02-10 04:29:00,
2013-02-09 23:30:00,28.8,17.8,30.40,SSW,206,0.0,1.0,63,0.00,,---,0.00,VWS V14.01,2013-02-10 04:30:00,
2013-02-09 23:34:00,30.0,17.4,30.39,SSW,206,0.0,1.0,59,0.00,,---,0.00,VWS V14.01,2013-02-10 04:34:00,
2013-02-09 23:39:00,29.9,17.3,30.39,SSW,206,0.0,1.0,59,0.00,,---,0.00,VWS V14.01,2013-02-10 04:39:00,
2013-02-09 23:44:00,30.0,17.8,30.39,SSW,206,0.0,1.0,60,0.00,,---,0.00,VWS V14.01,2013-02-10 04:44:00,
2013-02-09 23:49:00,29.8,18.0,30.39,SSW,206,0.0,1.0,61,0.00,,---,0.00,VWS V14.01,2013-02-10 04:49:00,
2013-02-09 23:54:00,29.6,17.8,30.39,SSW,206,0.0,1.0,61,0.00,,---,0.00,VWS V14.01,2013-02-10 04:54:00,
2013-02-09 23:59:00,29.5,18.1,30.40,SSW,206,0.0,1.0,62,0.00,,---,0.00,VWS V14.01,2013-02-10 04:59:00,